sat.trackr.live / text

‹ back to catalog

STARLINK-32356

NORAD 60921 · 2024-154U

PAYLOAD ACTIVE UNKNOWN

§ Identity

Operator
Country
US
Launch date
2024-08-31
Launch site
AFETR
Launch vehicle
Mass (kg)
RCS (m²)

Purposes: comms

External: N2YO · Heavens-Above · Gunter

§ Orbital elements

Epoch: 2026-05-24T19:53:36.992832Z

Period
94.11 min
Inclination
53.1614°
Eccentricity
0.0001341
Mean motion
15.30193260 rev/d
Perigee alt
474.3 km
Apogee alt
476.2 km
Semi-major
6,853.4 km
B*
4.4659e-5
RAAN
290.0784°
Arg perigee
84.5030°
Mean anomaly
275.6124°
Rev number
9,800

§ Raw data

STARLINK-323561 60921U 24154U   26144.82890038  .00000963  00000+0  44659-4 0  99982 60921  53.1614 290.0784 0001341  84.5030 275.6124 15.30193260 98003

JSON: /api/v1/satellites/60921 · /tle

For live sub-satellite position, see the globe view (requires WebGL).

§ Visibility from observer

Set your observer location to see the next 7 days of passes ≥ 10°. The values pass through the URL so the page stays shareable.

No JS? Fill the form by hand. The geolocation button needs JavaScript.